Regional Weather Roundup
Issued by NWS Sterling, VA

Home | Current Version | Previous Version | Graphics & Text | Print | Product List | Glossary On
Versions: 1 2 3 4 5 6 7 8 9 10 11 12 13 14 15 16 17 18 19 20 21 22 23 24 25 26 27 28 29 30 31 32 33 34 35 36 37 38 39 40 41 42 43 44 45 46 47 48 49 50
000
ASUS41 KLWX 301910
RWRLWX

REGIONAL WEATHER ROUNDUP
NATIONAL WEATHER SERVICE BALTIMORE MD/WASHINGTON DC
300 PM EDT SUN AUG 30 2015

Note: "FAIR" indicates few or no clouds below 12,000 feet
with no significant weather and/or obstructions to visibility.
 TC=TEMPERATURE CELSIUS

 * =Non NWS site. Station does not report precipitation (e.g. rain,
    snow, etc.), thunder, or fog.

DCZ001-MDZ009-015-VAZ040>042-051-053>054-302000-
WASHINGTON METRO

CITY           SKY/WX    TMP DP  RH WIND       PRES   REMARKS
WASHINGTON NAT PTSUNNY   85  68  56 S7        30.10F
DULLES         PTSUNNY   85  66  53 CALM      30.10F
ANDREWS AFB    PTSUNNY   87  64  46 VRB6      30.09F
FT BELVOIR     MOSUNNY   86  64  48 S6        30.09F
QUANTICO       MOSUNNY   81  68  64 SW6       30.10F
COLLEGE PARK*  PTSUNNY   84  64  51 SW5       30.09F
LEESBURG*      CLOUDY    88  72  58 S8        30.10F HX  94
MANASSAS*      SUNNY     84  66  54 CALM      30.10F
GAITHERSBURG*  PTSUNNY   86  66  51 SW6       30.13F

$$

MDZ006>007-011-014-302000-
BALTIMORE METRO

CITY           SKY/WX    TMP DP  RH WIND       PRES   REMARKS
BWI AIRPORT    CLOUDY    84  68  58 VRB5      30.08F
MD SCIENCE CTR   N/A     85  68  56 MISG      30.08F
MARTIN STATE   PTSUNNY   82  73  74 SE7       30.10F
ANNAPOLIS      PTSUNNY   81  68  64 SE7       30.09F
FORT MEADE*    CLOUDY    81  68  65 S3        30.11F

$$

MDZ012-015-019>023-302000-
MARYLAND EASTERN SHORE

CITY           SKY/WX    TMP DP  RH WIND       PRES   REMARKS
OCEAN CITY     MOSUNNY   85  66  53 S6        30.11F
SALISBURY      MOSUNNY   86  64  47 W9        30.10F
BAY BRIDGE AP*   N/A     81  64  57 S8        30.10F
CAMBRIDGE*     MOSUNNY   84  63  48 S9        30.10F
EASTON*        MOSUNNY   86  64  48 SW12G18   30.14F

$$

MDZ017>025-302000-
SOUTHERN MARYLAND

CITY           SKY/WX    TMP DP  RH WIND       PRES   REMARKS
PATUXENT RIVER PTSUNNY   85  64  49 S7        30.10F
ST INIGOES     MOSUNNY   84  66  54 S5        30.10F
LEONARDTOWN*   MOSUNNY   84  61  45 W7        30.12F

$$

MDZ003>005-302000-
NORTH CENTRAL MARYLAND

CITY           SKY/WX    TMP DP  RH WIND       PRES   REMARKS
FREDERICK*     SUNNY     90  66  45 W9        30.11F HX  92
HAGERSTOWN APT CLOUDY    90  61  37 W13       30.08F HX  90
WESTMINSTER*   PTSUNNY   86  66  51 SW6       30.10

$$

MDZ501>502-302000-
WESTERN MARYLAND

CITY           SKY/WX    TMP DP  RH WIND       PRES   REMARKS
OAKLAND*       PTSUNNY   72  61  68 W6        30.21F
CUMBERLAND*    PTSUNNY   90  63  40 SW6       30.12F HX  90

$$

VAZ025>031-302000-
SHENANDOAH VALLEY

CITY           SKY/WX    TMP DP  RH WIND       PRES   REMARKS
WINCHESTER*    PTSUNNY   90  61  37 SE5       30.10F
FRONT ROYAL*   FAIR      86  63  45 SE3       30.09F
LURAY*         FAIR      88  57  35 SW5       30.11F
NEW MARKET*    FAIR      86  62  44 SE3       30.09F
STAUNTON*      PTSUNNY   89  55  32 S5        30.15F
WAYNESBORO*    FAIR      86  60  40 SE3       30.15F

$$

WVZ021-048>050-054>055-302000-
EASTERN WEST VIRGINIA PANHANDLE

CITY           SKY/WX    TMP DP  RH WIND       PRES   REMARKS
MARTINSBURG    PTSUNNY   89  62  40 SW12G18   30.09F
PETERSBURG*    PTSUNNY   87  61  41 CALM      30.11F

$$

VAZ036>039-050-302000-
CENTRAL FOOTHILLS

CITY           SKY/WX    TMP DP  RH WIND       PRES   REMARKS
CHARLOTTESVILL PTSUNNY   89  61  38 SE6       30.11F
CULPEPER*      PTSUNNY   85  66  53 CALM      30.11F
ORANGE*        PTSUNNY   88  61  40 CALM      30.12F
GORDONSVILLE*  FAIR      87  64  44 CALM      30.10F
WARRENTON*     FAIR      88  68  51 SE5       30.10F HX  91

$$

VAZ055>057-302000-
NORTH AND CENTRAL PIEDMONT

CITY           SKY/WX    TMP DP  RH WIND       PRES   REMARKS
FREDERICKSBRG* SUNNY     90  65  43 S6        30.09F HX  92
STAFFORD*      MOSUNNY   86  62  44 S3        30.14F

$$

NCZ024-NYZ072-PAZ021-071-VAZ022-071-302000-
OTHER REGIONAL OBSERVATIONS

CITY           SKY/WX    TMP DP  RH WIND       PRES   REMARKS
NEW YORK CITY  PTSUNNY   88  64  44 CALM      30.07F
PHILADELPHIA   PTSUNNY   89  63  41 SW12      30.06F HX  90
PITTSBURGH     PTSUNNY   82  64  54 SW10      30.11F
ROANOKE        CLOUDY    84  60  44 NE3       30.17F
RICHMOND       PTSUNNY   89  61  38 S8        30.10F
RALEIGH        CLOUDY    85  58  39 SE3       30.13F

$$

ANZ530>537-302000-
MARINE OBSERVATIONS

STATION/POSITION TIME  TEMP    WIND        PRES
                       AIR SEA DIR/SP/G
                 (UTC) (F)     (DEG/KT/KT) (MB)
THOMAS PT LIGHT  NOT AVBL

$$




USA.gov is the U.S. government's official web portal to all federal, state and local government web resources and services.